FW7644 Weather Reports


time (UTC)temp
F
wind
direction
speed
knots
gust
knots
rain 1hr
in
rain 24hr
in
rain mn
in
humidity
%
barometer
mb
20260902021706 56 0.0 0.0 0.00 0.46 0.16 99 1020.3
20260902021205 56 0.0 0.0 0.00 0.46 0.16 99 1020.2
20260902020703 56 0.0 0.0 0.00 0.46 0.16 99 1020.2
20260902020202 56 0.0 0.0 0.00 0.46 0.16 99 1020.2
20260902015700 56 0.0 0.0 0.00 0.69 0.16 99 1020.2
20260902015158 56 0.0 0.0 0.00 0.69 0.16 99 1020.2
20260902014657 56 0.0 0.0 0.00 0.69 0.16 99 1020.2
20260902014155 55 0.0 0.0 0.00 0.69 0.16 99 1020.1
20260902013653 55 0.0 0.0 0.00 0.69 0.16 99 1020.1
20260902013152 55 0.0 0.0 0.00 0.69 0.16 99 1020.0
20260902012650 55 0.0 0.0 0.00 0.69 0.16 99 1019.9
20260902012149 55 0.0 0.0 0.00 0.69 0.16 99 1019.9
20260902011647 55 0.0 0.0 0.00 0.69 0.16 99 1019.8
20260902011145 55 0.0 0.0 0.00 0.69 0.16 99 1019.8
20260902010643 55 0.0 0.0 0.00 0.69 0.16 99 1019.8
20260902010141 55 0.0 0.0 0.00 0.69 0.16 99 1019.6
20260902005639 55 0.0 0.0 0.00 0.72 0.16 99 1019.5
20260902004636 55 0.0 0.0 0.00 0.72 0.16 99 1019.3
20260902004134 55 0.0 0.0 0.00 0.72 0.16 99 1019.3
20260902003632 56 0.0 0.0 0.00 0.72 0.16 99 1019.2
20260902003127 56 0.0 0.0 0.00 0.72 0.16 99 1019.1
20260902002625 56 0.0 0.0 0.00 0.72 0.16 99 1019.0
20260902002122 56 0.0 0.0 0.00 0.72 0.16 99 1018.9
20260902001620 56 0.0 0.0 0.00 0.72 0.16 98 1018.9
20260902001118 56 0.0 0.0 0.00 0.72 0.16 98 1018.9
20260902000616 57 0.0 0.0 0.00 0.72 0.16 98 1018.8
20260902000114 57 0.0 0.0 0.00 0.72 0.16 98 1018.7
20260901235611 57 0.0 0.0 0.00 0.82 0.16 97 1018.6
20260901235109 57 0.0 0.0 0.00 0.82 0.16 97 1018.6
20260901234105 57 0.0 0.0 0.00 0.82 0.16 95 1018.5
20260901233603 57 0.0 0.0 0.00 0.82 0.16 94 1018.4
20260901233101 57 0.0 0.0 0.00 0.82 0.16 94 1018.3
20260901232559 57 0.0 0.0 0.00 0.82 0.16 93 1018.1
20260901232058 58 0.0 0.0 0.00 0.82 0.16 93 1017.9
20260901231556 58 0.0 0.0 0.00 0.82 0.16 92 1017.9
20260901231055 58 0.0 0.0 0.00 0.82 0.16 91 1017.8
20260901230554 59 0.0 0.0 0.00 0.82 0.16 90 1017.8
20260901230052 59 0.0 0.0 0.00 0.82 0.16 89 1017.6
20260901225550 59 0.0 0.0 0.00 1.09 0.16 88 1017.4
20260901225049 59 0.0 0.0 0.00 1.09 0.16 88 1017.4
20260901224548 60 0.0 0.0 0.00 1.09 0.16 88 1017.3
20260901224046 60 0.0 0.0 0.00 1.09 0.16 88 1017.3
20260901223544 60 0.0 0.0 0.00 1.09 0.16 87 1017.2
20260901223043 60 0.0 0.0 0.00 1.09 0.16 86 1017.1
20260901222541 61 0.0 0.0 0.00 1.09 0.16 86 1017.0
20260901222039 62 0.0 0.0 0.00 1.09 0.16 84 1016.9
20260901221538 62 0.0 0.0 0.00 1.09 0.16 83 1016.9
20260901221036 61 0.0 0.0 0.00 1.09 0.16 83 1016.8
20260901220535 61 0.0 0.0 0.00 1.09 0.16 81 1016.6
20260901220033 61 0.0 0.0 0.00 1.09 0.16 81 1016.5
20260901215531 61 0.0 0.0 0.00 1.09 0.16 80 1016.4
20260901215030 61 0.0 0.0 0.00 1.09 0.16 79 1016.3
20260901214528 62 0.0 0.0 0.00 1.09 0.16 78 1016.3
20260901214026 62 0.0 0.0 0.00 1.09 0.16 75 1016.3
20260901213525 63 0.0 0.0 0.00 1.09 0.16 74 1016.2
20260901213023 63 0.0 0.0 0.00 1.09 0.16 72 1016.2
20260901212521 64 0.0 0.0 0.00 1.09 0.16 70 1016.2
20260901212020 64 0.0 0.0 0.00 1.09 0.16 69 1016.2
20260901211518 65 0.0 0.0 0.00 1.09 0.16 67 1016.1
20260901211016 65 0.0 0.0 0.00 1.09 0.16 66 1016.1
20260901210515 65 0.0 0.0 0.00 1.09 0.16 65 1016.1
20260901210013 66 0.0 0.0 0.00 1.09 0.16 64 1016.0
20260901205511 66 0.0 0.0 0.00 1.09 0.16 62 1015.9
20260901205009 66 0.0 0.0 0.00 1.09 0.16 62 1015.8
20260901204508 67 0.0 0.0 0.00 1.09 0.16 61 1015.6
20260901204006 68 0.0 0.0 0.00 1.09 0.16 60 1015.6
20260901203504 68 0.0 0.0 0.00 1.09 0.16 59 1015.6
20260901203002 70 0.0 0.0 0.00 1.09 0.16 56 1015.5
20260901202500 69 0.0 0.0 0.00 1.09 0.16 57 1015.4
20260901201959 71 0.0 0.0 0.00 1.09 0.16 54 1015.4
20260901201457 70 0.0 0.0 0.00 1.09 0.16 54 1015.4
20260901200955 71 0.0 0.0 0.00 1.09 0.16 53 1015.3
20260901200453 72 0.0 0.0 0.00 1.09 0.16 51 1015.2
20260901195951 71 0.0 0.0 0.00 1.10 0.16 52 1015.1
20260901195449 70 0.0 0.0 0.00 1.10 0.16 54 1015.1
20260901194947 72 0.0 0.0 0.00 1.10 0.16 52 1014.9
20260901194445 71 0.0 0.0 0.00 1.10 0.16 55 1014.7
20260901193943 69 0.0 0.0 0.00 1.10 0.16 56 1014.7
20260901193441 70 0.0 0.0 0.00 1.10 0.16 56 1014.7
20260901192939 71 0.0 0.0 0.00 1.10 0.16 52 1014.6
20260901192437 73 0.0 0.0 0.00 1.10 0.16 49 1014.6
20260901191936 74 0.0 0.0 0.00 1.10 0.16 49 1014.5
20260901191434 74 0.0 0.0 0.00 1.10 0.16 49 1014.4
20260901190932 74 0.0 0.0 0.00 1.10 0.16 49 1014.4
20260901190430 72 0.0 0.0 0.00 1.10 0.16 53 1014.3
20260901185928 71 0.0 0.0 0.00 1.14 0.16 54 1014.3
20260901185427 71 0.0 0.0 0.00 1.14 0.16 54 1014.4
20260901184924 72 0.0 0.0 0.00 1.14 0.16 54 1014.3
20260901184423 75 0.0 0.0 0.00 1.14 0.16 48 1014.2
20260901183921 74 0.0 0.0 0.00 1.14 0.16 49 1014.1
20260901183418 73 0.0 0.0 0.00 1.14 0.16 49 1014.1
20260901182917 76 0.0 0.0 0.00 1.14 0.16 48 1014.2
20260901182415 76 0.0 0.0 0.00 1.14 0.16 49 1014.2
20260901181913 75 0.0 0.0 0.00 1.14 0.16 47 1014.2
20260901181411 76 0.0 0.0 0.00 1.14 0.16 47 1014.2
20260901180910 73 0.0 0.0 0.00 1.14 0.16 53 1014.2
20260901180408 70 0.0 0.0 0.00 1.14 0.16 59 1014.3
20260901175906 70 0.0 0.0 0.00 1.58 0.16 58 1014.3
20260901175404 71 0.0 0.0 0.00 1.58 0.16 56 1014.4
20260901174903 74 0.0 0.0 0.00 1.58 0.16 51 1014.3
20260901174401 74 0.0 0.0 0.00 1.58 0.16 51 1014.2
20260901173900 75 0.0 0.0 0.00 1.58 0.16 51 1014.2
20260901173358 73 0.0 0.0 0.00 1.58 0.16 51 1014.2
20260901172856 74 0.0 0.0 0.00 1.58 0.16 53 1014.1
20260901172354 73 0.0 0.0 0.00 1.58 0.16 53 1014.1
20260901171853 73 0.0 0.0 0.00 1.58 0.16 54 1014.2
20260901171351 73 0.0 0.0 0.00 1.58 0.16 53 1014.3
20260901170849 74 0.0 0.0 0.00 1.58 0.16 51 1014.2
20260901170347 73 0.0 0.0 0.00 1.58 0.16 52 1014.2
20260901165846 73 0.0 0.0 0.00 1.58 0.16 53 1014.2
20260901165344 72 0.0 0.0 0.00 1.58 0.16 56 1014.2
20260901164843 73 0.0 0.0 0.00 1.58 0.16 54 1014.2
20260901164341 71 0.0 0.0 0.00 1.58 0.16 56 1014.3
20260901163839 73 0.0 0.0 0.00 1.58 0.16 56 1014.4
20260901163337 72 0.0 0.0 0.00 1.58 0.16 57 1014.4
20260901162835 74 0.0 0.0 0.00 1.58 0.16 56 1014.5
20260901162333 71 0.0 0.0 0.00 1.58 0.16 60 1014.6
20260901161831 71 0.0 0.0 0.00 1.58 0.16 60 1014.5
20260901161329 71 0.0 0.0 0.00 1.58 0.16 61 1014.6
20260901160827 74 0.0 0.0 0.00 1.58 0.16 58 1014.5
20260901160326 73 0.0 0.0 0.00 1.58 0.16 60 1014.6
20260901155824 71 0.0 0.0 0.00 1.58 0.16 62 1014.4
20260901155322 69 0.0 0.0 0.00 1.58 0.16 65 1014.4
20260901154820 70 0.0 0.0 0.00 1.58 0.16 65 1014.3
20260901154319 70 0.0 0.0 0.00 1.58 0.16 68 1014.2
20260901153817 69 0.0 0.0 0.00 1.58 0.16 67 1014.3
20260901153316 70 0.0 0.0 0.00 1.58 0.16 65 1014.3
20260901152814 69 0.0 0.0 0.00 1.58 0.16 65 1014.3
20260901152313 69 0.0 0.0 0.00 1.58 0.16 70 1014.2
20260901151811 67 0.0 0.0 0.00 1.58 0.16 71 1014.1
20260901151309 66 0.0 0.0 0.00 1.58 0.16 72 1014.2
20260901150808 66 0.0 0.0 0.00 1.58 0.16 75 1014.4
20260901150306 66 0.0 0.0 0.00 1.58 0.16 77 1014.3
20260901145805 66 0.0 0.0 0.00 1.58 0.16 78 1014.4
20260901145306 65 0.0 0.0 0.00 1.58 0.16 77 1014.3
20260901144802 64 0.0 0.0 0.00 1.58 0.16 80 1014.2
20260901144300 65 0.0 0.0 0.00 1.58 0.16 80 1014.2
20260901143759 65 0.0 0.0 0.00 1.58 0.16 83 1014.3
20260901143257 64 0.0 0.0 0.00 1.58 0.16 84 1014.4
20260901142755 64 0.0 0.0 0.00 1.58 0.16 86 1014.6
20260901142253 64 0.0 0.0 0.00 1.58 0.16 87 1014.7
20260901141751 63 0.0 0.0 0.00 1.58 0.16 90 1014.7
20260901141249 62 0.0 0.0 0.00 1.58 0.16 92 1014.7
20260901140748 62 0.0 0.0 0.00 1.58 0.16 93 1014.7
20260901140246 62 0.0 0.0 0.00 1.58 0.16 97 1014.6
20260901135744 61 0.0 0.0 0.00 1.63 0.16 99 1014.6
20260901135242 61 0.0 0.0 0.00 1.63 0.16 99 1014.7
20260901134741 61 0.0 0.0 0.01 1.63 0.16 99 1014.5
20260901134239 62 0.0 0.0 0.01 1.63 0.16 99 1014.4
20260901133737 62 0.0 0.0 0.01 1.63 0.16 99 1014.3
20260901133235 63 0.0 0.0 0.01 1.63 0.16 99 1014.1
20260901132733 63 0.0 0.0 0.01 1.63 0.16 99 1014.1
20260901132231 63 0.0 0.0 0.01 1.63 0.16 99 1014.1
20260901131730 63 0.0 0.0 0.01 1.63 0.16 99 1014.2
20260901131228 63 0.0 0.0 0.01 1.63 0.16 99 1014.1
20260901130726 63 0.0 0.0 0.01 1.63 0.16 99 1013.9
20260901130224 62 0.0 0.0 0.01 1.63 0.16 99 1013.9
20260901125721 62 0.0 0.0 0.01 1.63 0.16 99 1013.7
20260901125219 62 0.0 0.0 0.01 1.63 0.16 99 1013.5
20260901124717 63 0.0 0.0 0.00 1.62 0.15 99 1013.4
20260901124216 63 0.0 0.0 0.00 1.62 0.15 99 1013.3
20260901123714 63 0.0 0.0 0.00 1.62 0.15 99 1013.4
20260901123212 63 0.0 0.0 0.00 1.62 0.15 99 1013.3
20260901122709 63 0.0 0.0 0.00 1.62 0.15 99 1013.5
20260901122207 62 0.0 0.0 0.00 1.62 0.15 99 1013.5
20260901121705 62 0.0 0.0 0.00 1.62 0.15 99 1013.8
20260901121203 62 0.0 0.0 0.00 1.62 0.15 99 1013.5
20260901120701 62 0.0 0.0 0.00 1.62 0.15 99 1013.5
20260901120159 61 0.0 0.0 0.00 1.62 0.15 99 1013.4
20260901115657 61 0.0 0.0 0.00 1.62 0.15 99 1013.4
20260901115155 61 0.0 0.0 0.00 1.62 0.15 99 1013.0
20260901114652 60 0.0 0.0 0.00 1.62 0.15 99 1012.9
20260901114151 60 0.0 0.0 0.00 1.62 0.15 99 1012.9
20260901113649 59 0.0 0.0 0.00 1.62 0.15 99 1013.0
20260901113146 59 0.0 0.0 0.00 1.62 0.15 99 1011.8
20260901112645 59 0.0 0.0 0.00 1.62 0.15 99 1012.5
20260901112143 59 0.0 0.0 0.00 1.62 0.15 99 1012.5
20260901111642 59 0.0 0.0 0.00 1.62 0.15 99 1012.6
20260901111140 59 0.0 0.0 0.00 1.62 0.15 99 1012.6
20260901110639 59 0.0 0.0 0.00 1.62 0.15 99 1012.5
20260901110137 58 0.0 0.0 0.00 1.62 0.15 99 1012.2
20260901105636 58 0.0 0.0 0.00 1.62 0.15 99 1012.3
20260901105134 58 0.0 0.0 0.00 1.62 0.15 99 1012.4
20260901104632 58 0.0 0.0 0.00 1.62 0.15 99 1012.2
20260901104131 58 0.0 0.0 0.00 1.62 0.15 99 1012.0
20260901103629 57 0.0 0.0 0.00 1.62 0.15 99 1012.0
20260901103128 57 0.0 0.0 0.00 1.62 0.15 99 1011.8
20260901102626 57 0.0 0.0 0.00 1.62 0.15 99 1011.9
20260901102124 57 0.0 0.0 0.00 1.62 0.15 99 1011.7
20260901101623 57 0.0 0.0 0.00 1.62 0.15 99 1011.7
20260901101121 57 0.0 0.0 0.00 1.62 0.15 99 1011.6
20260901100620 57 0.0 0.0 0.00 1.62 0.15 99 1011.8
20260901100118 57 0.0 0.0 0.00 1.62 0.15 99 1011.8
20260901095616 56 0.0 0.0 0.00 1.62 0.15 99 1011.7
20260901095114 56 0.0 0.0 0.00 1.62 0.15 99 1011.6
20260901094613 56 0.0 0.0 0.00 1.62 0.15 99 1011.6
20260901094111 56 0.0 0.0 0.00 1.62 0.15 99 1011.4
20260901093610 56 0.0 0.0 0.00 1.62 0.15 99 1011.2
20260901093108 56 0.0 0.0 0.00 1.62 0.15 99 1011.1
20260901092607 56 0.0 0.0 0.00 1.62 0.15 99 1011.1
20260901092105 56 0.0 0.0 0.00 1.62 0.15 99 1011.0
20260901091604 56 0.0 0.0 0.00 1.62 0.15 99 1010.9
20260901091102 56 0.0 0.0 0.00 1.62 0.15 99 1010.9
20260901090601 56 0.0 0.0 0.00 1.62 0.15 99 1010.8
20260901090059 56 0.0 0.0 0.00 1.62 0.15 99 1010.8
20260901085558 56 0.0 0.0 0.00 1.62 0.15 99 1010.9
20260901085056 56 0.0 0.0 0.00 1.62 0.15 99 1011.0
20260901084554 55 0.0 0.0 0.00 1.62 0.15 99 1011.0
20260901084053 56 0.0 0.0 0.00 1.62 0.15 99 1010.9
20260901083551 56 0.0 0.0 0.00 1.62 0.15 99 1010.9
20260901083049 56 0.0 0.0 0.00 1.62 0.15 99 1010.8
20260901082548 55 0.0 0.0 0.00 1.62 0.15 99 1010.8
20260901082047 55 0.0 0.0 0.00 1.62 0.15 99 1010.8
20260901081545 55 0.0 0.0 0.00 1.62 0.15 99 1010.7
20260901081043 55 0.0 0.0 0.00 1.62 0.15 99 1010.6
20260901080542 55 0.0 0.0 0.00 1.62 0.15 99 1010.6
20260901080040 55 0.0 0.0 0.00 1.62 0.15 99 1010.5
20260901075539 55 0.0 0.0 0.00 1.62 0.15 99 1010.5
20260901075037 55 0.0 0.0 0.00 1.62 0.15 99 1010.4
20260901074536 55 0.0 0.0 0.00 1.62 0.15 99 1010.4
20260901074034 55 0.0 0.0 0.00 1.62 0.15 99 1010.5
20260901073533 55 0.0 0.0 0.00 1.62 0.15 99 1010.4
20260901073031 56 0.0 0.0 0.00 1.62 0.15 99 1010.6
20260901072530 56 0.0 0.0 0.00 1.62 0.15 99 1010.3
20260901072028 55 0.0 0.0 0.00 1.62 0.15 99 1010.4
20260901071527 56 0.0 0.0 0.00 1.62 0.15 99 1010.6
20260901071025 55 0.0 0.0 0.00 1.62 0.15 99 1010.7
20260901070524 56 0.0 0.0 0.00 1.62 0.15 99 1010.9
20260901070022 55 0.0 0.0 0.00 1.62 0.15 99 1011.0
20260901065520 56 0.0 0.0 0.00 1.62 0.15 99 1010.9
20260901065019 56 0.0 0.0 0.00 1.62 0.15 99 1010.8
20260901064517 56 0.0 0.0 0.00 1.62 0.15 99 1011.2
20260901064016 56 0.0 0.0 0.00 1.62 0.15 99 1011.1
20260901063514 56 0.0 0.0 0.00 1.62 0.15 99 1011.0
20260901063013 56 0.0 0.0 0.00 1.62 0.15 99 1011.2
20260901062511 56 0.0 0.0 0.00 1.62 0.15 99 1011.2
20260901062010 56 0.0 0.0 0.00 1.62 0.15 99 1011.4
20260901061509 56 0.0 0.0 0.00 1.62 0.15 99 1011.6
20260901061007 56 0.0 0.0 0.00 1.62 0.15 99 1011.8
20260901060506 56 0.0 0.0 0.00 1.62 0.15 99 1011.8
20260901060004 56 0.0 0.0 0.00 1.62 0.15 99 1012.1
20260901055503 56 0.0 0.0 0.00 1.62 0.15 99 1012.1
20260901055001 56 0.0 0.0 0.00 1.62 0.15 99 1012.0
20260901054500 56 0.0 0.0 0.00 1.62 0.15 99 1012.2
20260901053958 56 0.0 0.0 0.00 1.62 0.15 99 1012.2
20260901053457 56 0.0 0.0 0.00 1.62 0.15 99 1012.2
20260901052955 56 0.0 0.0 0.00 1.62 0.15 99 1012.2
20260901052454 56 0.0 0.0 0.00 1.62 0.15 99 1012.2
20260901051952 56 0.0 0.0 0.00 1.62 0.15 99 1012.2
20260901051451 56 0.0 0.0 0.00 1.62 0.15 99 1012.4
20260901050949 56 0.0 0.0 0.01 1.62 0.15 99 1012.5
20260901050448 56 0.0 0.0 0.01 1.62 0.15 99 1012.7
20260901045947 56 0.0 0.0 0.05 1.62 0.15 99 1013.0
20260901045446 56 0.0 0.0 0.05 1.62 0.15 99 1013.4
20260901044944 56 0.0 0.0 0.09 1.62 0.15 99 1013.5
20260901044443 56 0.0 0.0 0.09 1.62 0.15 99 1013.2
20260901043941 56 0.0 0.0 0.11 1.62 0.15 99 1013.5
20260901043440 56 0.0 0.0 0.11 1.62 0.15 99 1013.6
20260901042938 56 0.0 0.0 0.12 1.62 0.15 99 1013.3
20260901042437 56 0.0 0.0 0.12 1.62 0.15 99 1013.2
20260901041936 56 0.0 0.0 0.13 1.62 0.15 99 1013.3
20260901041434 56 0.0 0.0 0.13 1.62 0.15 99 1013.3
20260901040933 57 0.0 0.0 0.15 1.62 0.15 99 1013.3
20260901040431 57 0.0 0.0 0.15 1.62 0.15 99 1013.7
20260901035930 57 0.0 0.0 0.18 1.61 0.14 99 1015.8
20260901035429 57 0.0 0.0 0.17 1.60 0.13 99 1016.7
20260901034927 57 0.0 0.0 0.20 1.57 0.10 99 1017.4
20260901034425 57 0.0 0.0 0.17 1.55 0.07 99 1017.7
20260901033924 57 0.0 0.0 0.21 1.54 0.06 99 1017.5
20260901033422 57 0.0 0.0 0.20 1.53 0.05 99 1017.3
20260901032921 57 0.0 0.0 0.23 1.52 0.04 99 1017.1
20260901032419 57 0.0 0.0 0.22 1.51 0.03 99 1017.1
20260901031918 57 0.0 0.0 0.26 1.51 0.03 99 1016.9
20260901031416 57 0.0 0.0 0.25 1.50 0.02 99 1017.1
20260901030914 58 0.0 0.0 0.32 1.50 0.02 99 1016.8
20260901030413 58 0.0 0.0 0.31 1.49 0.01 99 1016.5
20260901025911 58 0.0 0.0 0.37 1.72 1.47 99 1016.5
20260901025410 58 0.0 0.0 0.35 1.70 1.45 99 1017.5
20260901024908 59 0.0 0.0 0.37 1.68 1.43 99 1017.8
20260901024406 59 0.0 0.0 0.35 1.66 1.41 99 1017.8
20260901023905 59 0.0 0.0 0.38 1.63 1.38 99 1017.6
20260901023403 59 0.0 0.0 0.35 1.60 1.35 99 1017.5
20260901022901 59 0.0 0.0 0.36 1.58 1.33 99 1017.5
20260901022400 59 0.0 0.0 0.34 1.56 1.31 99 1017.4